"Pseudo-MPEC" for P12oAZ6

Created 2026 Jul 26 18:35:06 UT using Find_Orb

Click here for an explanation of pseudo-MPECs

 
 Astrometry: 
     P12oAZ6*0C2026 07 24.50892722 49 58.736-02 01 03.37   ~7OG5 21.96wXNEOCPF51
     P12oAZ6 0C2026 07 24.52081422 49 59.809-02 00 52.78   ~7OG5 22.24wXNEOCPF51
     P12oAZ6 0C2026 07 24.53291822 50 00.894-02 00 41.97   ~7OG5 22.25wXNEOCPF51
     P12oAZ6 0C2026 07 26.50433922 53 12.606-01 31 38.57   ~7QGK 23.57GVNEOCPF52
     P12oAZ6 0C2026 07 26.51403822 53 13.489-01 31 30.12   ~7QGK 22.55GVNEOCPF52
     P12oAZ6 0C2026 07 26.52371322 53 14.344-01 31 21.67   ~7QGK 21.57GVNEOCPF52

Station data:
(F51) Pan-STARRS 1, Haleakala  (N20.707234 W156.255910)  US/Hawaii.
   Observers J. Herman, T. Lowe, P. Minguez, A. Schultz, I. Smith. Measurers
   K. Chambers, T. de Boer, J. Fairlamb, H. Gao, M. Huber, C.-C. Lin, E.
   Magnier, Y. Ramanjooloo, R. Wainscoat, R. Weryk. 1.8-m Ritchey-Chrétien +
   CCD.
(F52) Pan-STARRS 2, Haleakala  (N20.707382 W156.255910)  US/Hawaii.
   Observers J. Herman, T. Lowe, P. Minguez, A. Schultz, I. Smith. Measurers
   K. Chambers, T. de Boer, J. Fairlamb, H. Gao, M. Huber, C.-C. Lin, E.
   Magnier, Y. Ramanjooloo, R. Wainscoat, R. Weryk. 1.8-m Ritchey-Chrétien +
   CCD.

Orbital elements:  P12oAZ6
   Perihelion 2026 Oct 16.584421 +/- 23.8 TT = 14:01:33.9 (JD 2461330.084421)
Epoch 2026 Jul 26.0 TT = JDT 2461247.5   Earth MOID: 0.0614   Ma: 0.0871
M 336.187206491 +/- 8               (J2000 ecliptic)             AutoNEOCP
n   0.288344862 +/- 0.0856          Peri.  170.644479 +/- 32
a   2.269139717 +/- 0.449           Node   220.057799 +/- 10
e   0.53458940 +/- 0.0914           Incl.    1.779080 +/- 0.17
P   3.41816                H 21.93  G  0.15   U 11.1  SR
q 1.056081654 +/- 0.101    Q 3.482197780 +/- 1.23
From 6 observations 2026 July 24-26; mean residual 0".17
Residuals in arcseconds: 
260724 F51  .10-  .24-    260724 F51  .06+  .25+    260726 F52  .13+  .01-    
260724 F51  .03+  .01-    260726 F52  .15+  .24+    260726 F52  .27-  .23-    

Ephemerides (geocentric):
Date (UTC) HH   RA             Dec           delta  r     elong  mag " sig PA
---- --------  ------------   ------------  ------ ------ -----  --- --------
2026 07 26 19  22 53 40.557   -01 27 13.85  .48438 1.4172 139.0 22.4 5.17 112
2026 07 26 20  22 53 44.659   -01 26 36.31  .48397 1.4170 139.0 22.4 6.05 113
2026 07 26 21  22 53 48.763   -01 25 58.75  .48356 1.4167 139.1 22.4 6.96 114
2026 07 26 22  22 53 52.868   -01 25 21.17  .48315 1.4164 139.1 22.3 7.91 115
2026 07 26 23  22 53 56.976   -01 24 43.57  .48274 1.4161 139.1 22.3 8.88 116
2026 07 27 00  22 54 01.085   -01 24 05.94  .48233 1.4158 139.1 22.3 9.89 116
2026 07 27 01  22 54 05.196   -01 23 28.29  .48192 1.4155 139.1 22.3 10.9 117
2026 07 27 02  22 54 09.309   -01 22 50.62  .48151 1.4152 139.1 22.3 12.0 117
2026 07 27 03  22 54 13.424   -01 22 12.93  .48110 1.4149 139.2 22.3 13.1 117
2026 07 27 04  22 54 17.540   -01 21 35.21  .48069 1.4146 139.2 22.3 14.2 118
2026 07 27 05  22 54 21.659   -01 20 57.47  .48028 1.4144 139.2 22.3 15.4 118
2026 07 27 06  22 54 25.779   -01 20 19.70  .47987 1.4141 139.2 22.3 16.6 118
2026 07 27 07  22 54 29.902   -01 19 41.91  .47946 1.4138 139.2 22.3 17.8 118
2026 07 27 08  22 54 34.026   -01 19 04.10  .47905 1.4135 139.3 22.3 19.0 119
2026 07 27 09  22 54 38.152   -01 18 26.27  .47864 1.4132 139.3 22.3 20.3 119
2026 07 27 10  22 54 42.280   -01 17 48.41  .47824 1.4129 139.3 22.3 21.6 119
2026 07 27 11  22 54 46.410   -01 17 10.53  .47783 1.4126 139.3 22.3 22.9 119
2026 07 27 12  22 54 50.542   -01 16 32.63  .47742 1.4123 139.3 22.3 24.3 119
2026 07 27 13  22 54 54.676   -01 15 54.70  .47701 1.4120 139.4 22.3 25.7 119
2026 07 27 14  22 54 58.812   -01 15 16.75  .47660 1.4117 139.4 22.3 27.1 119
2026 07 27 15  22 55 02.949   -01 14 38.77  .47620 1.4115 139.4 22.3 28.6 119
2026 07 27 16  22 55 07.089   -01 14 00.77  .47579 1.4112 139.4 22.3 30.1 119
2026 07 27 17  22 55 11.231   -01 13 22.75  .47538 1.4109 139.4 22.3 31.6 120
2026 07 27 18  22 55 15.374   -01 12 44.71  .47498 1.4106 139.5 22.3 33.1 120
2026 07 27 19  22 55 19.520   -01 12 06.64  .47457 1.4103 139.5 22.3 34.7 120
2026 07 27 20  22 55 23.667   -01 11 28.55  .47416 1.4100 139.5 22.3 36.3 120
2026 07 27 21  22 55 27.817   -01 10 50.43  .47376 1.4097 139.5 22.3 38.0 120
2026 07 27 22  22 55 31.968   -01 10 12.29  .47335 1.4094 139.5 22.3 39.6 120
2026 07 27 23  22 55 36.122   -01 09 34.12  .47295 1.4091 139.6 22.3 41.3 120
2026 07 28 00  22 55 40.277   -01 08 55.94  .47254 1.4089 139.6 22.3 43.1 120
2026 07 28 01  22 55 44.434   -01 08 17.72  .47214 1.4086 139.6 22.3 44.8 120
2026 07 28 02  22 55 48.594   -01 07 39.49  .47173 1.4083 139.6 22.3 46.6 120
2026 07 28 03  22 55 52.755   -01 07 01.23  .47133 1.4080 139.6 22.3 48.4 120
2026 07 28 04  22 55 56.919   -01 06 22.95  .47092 1.4077 139.6 22.3 50.3 120
2026 07 28 05  22 56 01.084   -01 05 44.64  .47052 1.4074 139.7 22.3 52.2 120
2026 07 28 06  22 56 05.252   -01 05 06.31  .47011 1.4071 139.7 22.3 54.1 120
2026 07 28 07  22 56 09.421   -01 04 27.95  .46971 1.4068 139.7 22.3 56.1 120
2026 07 28 08  22 56 13.593   -01 03 49.57  .46931 1.4065 139.7 22.3 58.0 120
2026 07 28 09  22 56 17.766   -01 03 11.17  .46890 1.4063 139.7 22.3 60.0 120
2026 07 28 10  22 56 21.942   -01 02 32.74  .46850 1.4060 139.8 22.3 62.1 120
2026 07 28 11  22 56 26.120   -01 01 54.28  .46810 1.4057 139.8 22.3 64.1 120
2026 07 28 12  22 56 30.299   -01 01 15.81  .46769 1.4054 139.8 22.3 66.3 120
2026 07 28 13  22 56 34.481   -01 00 37.30  .46729 1.4051 139.8 22.3 68.4 120
2026 07 28 14  22 56 38.665   -00 59 58.78  .46689 1.4048 139.8 22.3 70.5 120
2026 07 28 15  22 56 42.851   -00 59 20.23  .46649 1.4045 139.9 22.2 72.7 120
2026 07 28 16  22 56 47.039   -00 58 41.65  .46609 1.4042 139.9 22.2 75.0 120
2026 07 28 17  22 56 51.229   -00 58 03.05  .46568 1.4040 139.9 22.2 77.2 120
2026 07 28 18  22 56 55.422   -00 57 24.43  .46528 1.4037 139.9 22.2 79.5 120